Date,TemperatureHighF,TemperatureAvgF,TemperatureLowF,DewpointHighF,DewpointAvgF,DewpointLowF,HumidityHigh,HumidityAvg,HumidityLow,PressureMaxIn,PressureMinIn,WindSpeedMaxMPH,WindSpeedAvgMPH,GustSpeedMaxMPH,PrecipitationSumIn
2013-4-1,76,65,59,-100,-100,-100,0,0,100,0.00,40.00,0,-999,0,0.00
2013-4-2,80,67,57,-100,-100,-100,0,0,100,0.00,40.00,0,-999,0,0.00
2013-4-3,67,56,51,-100,-100,-100,0,0,100,0.00,40.00,0,-999,0,0.00
2013-4-4,54,50,47,-100,-100,-100,0,0,100,0.00,40.00,0,-999,0,0.00
2013-4-5,68,60,47,-100,-100,-100,0,0,100,0.00,40.00,0,-999,0,0.00
2013-4-6,73,60,49,-100,-100,-100,0,0,100,0.00,40.00,0,-999,0,0.00
2013-4-7,83,68,58,-100,-100,-100,0,0,100,0.00,40.00,0,-999,0,0.00
2013-4-8,83,71,64,-100,-100,-100,0,0,100,0.00,40.00,0,-999,0,0.00
2013-4-9,84,74,69,-100,-100,-100,0,0,100,0.00,40.00,0,-999,0,0.00
2013-4-10,83,77,73,-100,-100,-100,0,0,100,0.00,40.00,0,-999,0,0.00
2013-4-11,76,63,54,-100,-100,-100,0,0,100,0.00,40.00,0,-999,0,0.00
2013-4-12,76,61,50,-100,-100,-100,0,0,100,0.00,40.00,0,-999,0,0.00
2013-4-13,82,64,54,-100,-100,-100,0,0,100,0.00,40.00,0,-999,0,0.00
2013-4-14,81,68,57,-100,-100,-100,0,0,100,0.00,40.00,0,-999,0,0.00
2013-4-15,93,75,66,-100,-100,-100,0,0,100,0.00,40.00,0,-999,0,0.00
2013-4-16,85,78,75,-100,-100,-100,0,0,100,0.00,40.00,0,-999,0,0.00
2013-4-17,89,80,75,-100,-100,-100,0,0,100,0.00,40.00,0,-999,0,0.00
2013-4-18,85,74,53,-100,-100,-100,0,0,100,0.00,40.00,0,-999,0,0.00
2013-4-19,61,54,47,-100,-100,-100,0,0,100,0.00,40.00,0,-999,0,0.00
2013-4-20,69,54,44,-100,-100,-100,0,0,100,0.00,40.00,0,-999,0,0.00
2013-4-21,73,60,51,-100,-100,-100,0,0,100,0.00,40.00,0,-999,0,0.00
2013-4-22,83,67,55,-100,-100,-100,0,0,100,0.00,40.00,0,-999,0,0.00
2013-4-23,89,77,65,-100,-100,-100,0,0,100,0.00,40.00,0,-999,0,0.00
2013-4-24,73,63,54,-100,-100,-100,0,0,100,0.00,40.00,0,-999,0,0.00
2013-4-25,70,58,51,-100,-100,-100,0,0,100,0.00,40.00,0,-999,0,0.00
2013-4-26,83,71,58,-100,-100,-100,0,0,100,0.00,40.00,0,-999,0,0.00
2013-4-27,82,77,71,-100,-100,-100,0,0,100,0.00,40.00,0,-999,0,0.00
2013-4-28,75,72,69,-100,-100,-100,0,0,100,0.00,40.00,0,-999,0,0.00
2013-4-29,83,68,63,-100,-100,-100,0,0,100,0.00,40.00,0,-999,0,0.00
2013-4-30,78,71,66,-100,-100,-100,0,0,100,0.00,40.00,0,-999,0,0.00